QPF
0.00 0.00 0.00 0.00 0.00 0.00 0.00 0.00 0.00 0.00 0.00 0.00 0.00 0.00 0.00 0.00 0.00 0.00 0.00 0.00 0.00 0.00 0.00 0.00 0.00 0.00 0.00 0.00 0.00 0.00 0.00 0.00 0.00 0.00 0.00 0.00 0.00 0.00 0.00 0.00 0.00 0.00 0.00 0.00
0.00 0.00 0.00 0.00 0.00 0.00 0.00 0.00 0.00 0.00 0.00 0.00 0.00 0.00 0.00 0.00 0.00 0.00 0.00 0.00 0.00 0.00 0.00 0.00 0.00 0.00 0.00 0.00 0.00 0.00 0.00 0.00 0.00 0.00 0.00 0.00 0.00 0.00 0.00 0.00 0.00 0.00 0.00 0.00
0.00 0.00 0.00 0.00 0.00 0.00 0.00 0.00 0.00 0.00 0.00 0.00 0.00 0.00 0.00 0.00 0.00 0.00 0.00 0.00 0.00 0.00 0.00 0.00 0.00 0.00 0.00 0.00 0.00 0.00 0.00 0.00 0.00 0.00 0.00 0.00 0.00 0.00 0.00 0.00 0.00 0.00 0.00 0.00
0.00 0.00 0.00 0.00 0.00 0.00 0.00 0.00 0.00 0.00 0.00 0.00 0.00 0.00 0.00 0.00 0.00 0.00 0.00 0.00 0.00 0.00 0.00 0.00 0.00 0.00 0.00 0.00 0.00 0.00 0.00 0.00 0.00 0.00 0.00 0.00 0.00 0.00 0.00 0.00 0.00 0.00 0.00 0.00
0.00 0.00 0.00 0.00 0.00 0.00 0.00 0.00 0.00 0.00 0.00 0.00 0.00 0.00 0.00 0.00 0.00 0.00 0.00 0.00 0.00 0.00 0.00 0.00 0.00 0.00 0.00 0.00 0.00 0.00 0.00 0.00 0.00 0.00 0.00 0.00 0.00 0.00 0.00 0.00 0.00 0.00 0.00 0.00
0.00 0.00 0.00 0.00 0.00 0.00 0.00 0.00 0.00 0.00 0.00 0.00 0.00 0.00 0.00 0.00 0.00 0.00 0.00 0.00 0.00 0.00 0.00 0.00 0.00 0.00 0.00 0.00 0.00 0.00 0.00 0.00 0.00 0.00 0.00 0.00 0.00 0.00 0.00 0.00 0.00 0.00 0.00 0.00
0.00 0.00 0.00 0.00 0.00 0.00 0.00 0.00 0.00 0.00 0.00 0.00 0.00 0.00 0.00 0.00 0.00 0.00 0.00 0.00 0.00 0.00 0.00 0.00 0.00 0.00 0.00 0.00 0.00 0.00 0.00 0.00 0.00 0.00 0.00 0.00 0.00 0.00 0.00 0.00 0.00 0.00 0.00 0.00
0.00 0.00 0.00 0.00 0.00 0.00 0.00 0.00 0.00 0.00 0.00 0.00 0.00 0.00 0.00 0.00 0.00 0.00 0.00 0.00 0.00 0.00 0.00 0.00 0.00 0.00 0.00 0.00 0.00 0.00 0.00 0.00 0.00 0.00 0.00 0.00 0.00 0.00 0.00 0.00 0.00 0.00 0.00 0.00
0.00 0.00 0.00 0.00 0.00 0.00 0.00 0.00 0.00 0.00 0.00 0.00 0.00 0.00 0.00 0.00 0.00 0.00 0.00 0.00 0.00 0.00 0.00 0.00 0.00 0.00 0.00 0.00 0.00 0.00 0.00 0.00 0.00 0.00 0.00 0.00 0.00 0.00 0.00 0.00 0.00 0.00 0.00 0.00
0.00 0.00 0.00 0.00 0.00 0.00 0.00 0.00 0.00 0.00 0.00 0.00 0.00 0.00 0.00 0.00 0.00 0.00 0.00 0.00 0.00 0.00 0.00 0.00 0.00 0.00 0.00 0.00 0.00 0.00 0.00 0.00 0.00 0.00 0.00 0.00 0.00 0.00 0.00 0.00 0.00 0.00 0.00 0.00
0.00 0.00 0.00 0.00 0.00 0.00 0.00 0.00 0.00 0.00 0.00 0.00 0.00 0.00 0.00 0.00 0.00 0.00 0.00 0.00 0.00 0.00 0.00 0.00 0.00 0.00 0.00 0.00 0.00 0.00 0.00 0.00 0.00 0.00 0.00 0.00 0.00 0.00 0.00 0.00 0.00 0.00 0.00 0.00
0.00 0.00 0.00 0.00 0.00 0.00 0.00 0.00 0.00 0.00 0.00 0.00 0.00 0.00 0.00 0.00 0.00 0.00 0.00 0.00 0.00 0.00 0.00 0.00 0.00 0.00 0.00 0.00 0.00 0.00 0.00 0.00 0.00 0.00 0.00 0.00 0.00 0.00 0.00 0.00 0.00 0.00 0.00 0.00
0.00 0.00 0.00 0.00 0.00 0.00 0.00 0.00 0.00 0.00 0.00 0.00 0.00 0.00 0.00 0.00 0.00 0.00 0.00 0.00 0.00 0.00 0.00 0.00 0.00 0.00 0.00 0.00 0.00 0.00 0.00 0.00 0.00 0.00 0.00 0.00 0.00 0.00 0.00 0.00 0.00 0.00 0.00 0.00
0.00 0.00 0.00 0.00 0.00 0.00 0.00 0.00 0.00 0.00 0.00 0.00 0.00 0.00 0.00 0.00 0.00 0.00 0.00 0.00 0.00 0.00 0.00 0.00 0.00 0.00 0.00 0.00 0.00 0.00 0.00 0.00 0.00 0.00 0.00 0.00 0.00 0.00 0.00 0.00 0.00 0.00 0.00 0.00
0.00 0.00 0.00 0.00 0.00 0.00 0.00 0.00 0.00 0.00 0.00 0.00 0.00 0.00 0.00 0.00 0.00 0.00 0.00 0.00 0.00 0.00 0.00 0.00 0.00 0.00 0.00 0.00 0.00 0.00 0.00 0.00 0.00 0.00 0.00 0.00 0.00 0.00 0.00 0.00 0.00 0.00 0.00 0.00
0.00 0.00 0.00 0.00 0.00 0.00 0.00 0.00 0.00 0.00 0.00 0.00 0.00 0.00 0.00 0.00 0.00 0.00 0.00 0.00 0.00 0.00 0.00 0.00 0.00 0.00 0.00 0.00 0.00 0.00 0.00 0.00 0.00 0.00 0.00 0.00 0.00 0.00 0.00 0.00 0.00 0.00 0.00 0.00
0.00 0.00 0.00 0.00 0.00 0.00 0.00 0.00 0.00 0.00 0.00 0.00 0.00 0.00 0.00 0.00 0.00 0.00 0.00 0.00 0.00 0.00 0.00 0.00 0.00 0.00 0.00 0.00 0.00 0.00 0.00 0.00 0.00 0.00 0.00 0.00 0.00 0.00 0.00 0.00 0.00 0.00 0.00 0.00
0.00 0.00 0.00 0.00 0.00 0.00 0.00 0.00 0.00 0.00 0.00 0.00 0.00 0.00 0.00 0.00 0.00 0.00 0.00 0.00 0.00 0.00 0.00 0.00 0.00 0.00 0.00 0.00 0.00 0.00 0.00 0.00 0.00 0.00 0.00 0.00 0.00 0.00 0.00 0.00 0.00 0.00 0.00 0.00
0.00 0.00 0.00 0.00 0.00 0.00 0.00 0.00 0.00 0.00 0.00 0.00 0.00 0.00 0.00 0.00 0.00 0.00 0.00 0.00 0.00 0.00 0.00 0.00 0.00 0.00 0.00 0.00 0.00 0.00 0.00 0.00 0.00 0.00 0.00 0.00 0.00 0.00 0.00 0.00 0.00 0.00 0.00 0.00
0.00 0.00 0.00 0.00 0.00 0.00 0.00 0.00 0.00 0.00 0.00 0.00 0.00 0.00 0.00 0.00 0.00 0.00 0.00 0.00 0.00 0.00 0.00 0.00 0.00 0.00 0.00 0.00 0.00 0.00 0.00 0.00 0.00 0.00 0.00 0.00 0.00 0.00 0.00 0.00 0.00 0.00 0.00 0.00
0.00 0.00 0.00 0.00 0.00 0.00 0.00 0.00 0.00 0.00 0.00 0.00 0.00 0.00 0.00 0.00 0.00 0.00 0.00 0.00 0.00 0.00 0.00 0.00 0.00 0.00 0.00 0.00 0.00 0.00 0.00 0.00 0.00 0.00 0.00 0.00 0.00 0.00 0.00 0.00 0.00 0.00 0.00 0.00
0.00 0.00 0.00 0.00 0.00 0.00 0.00 0.00 0.00 0.00 0.00 0.00 0.00 0.00 0.00 0.00 0.00 0.00 0.00 0.00 0.00 0.00 0.00 0.00 0.00 0.00 0.00 0.00 0.00 0.00 0.00 0.00 0.00 0.00 0.00 0.00 0.00 0.00 0.00 0.00 0.00 0.00 0.00 0.00
0.00 0.00 0.00 0.00 0.00 0.00 0.00 0.00 0.00 0.00 0.00 0.00 0.00 0.00 0.00 0.00 0.00 0.00 0.00 0.00 0.00 0.00 0.00 0.00 0.00 0.00 0.00 0.00 0.00 0.00 0.00 0.00 0.00 0.00 0.00 0.00 0.00 0.00 0.00 0.00 0.00 0.00 0.00 0.00
0.00 0.00 0.00 0.00 0.00 0.00 0.00 0.00 0.00 0.00 0.00 0.00 0.00 0.00 0.00 0.00 0.00 0.00 0.00 0.00 0.00 0.00 0.00 0.00 0.00 0.00 0.00 0.00 0.00 0.00 0.00 0.00 0.00 0.00 0.00 0.00 0.00 0.00 0.00 0.00 0.00 0.00 0.00 0.00
0.00 0.00 0.00 0.00 0.00 0.00 0.00 0.00 0.00 0.00 0.00 0.00 0.00 0.00 0.00 0.00 0.00 0.00 0.00 0.00 0.00 0.00 0.00 0.00 0.00 0.00 0.00 0.00 0.00 0.00 0.00 0.00 0.00 0.00 0.00 0.00 0.00 0.00 0.00 0.00 0.00 0.00 0.00 0.00
0.00 0.00 0.00 0.00 0.00 0.00 0.00 0.00 0.00 0.00 0.00 0.00 0.00 0.00 0.00 0.00 0.00 0.00 0.00 0.00 0.00 0.00 0.00 0.00 0.00 0.00 0.00 0.00 0.00 0.00 0.00 0.00 0.00 0.00 0.00 0.00 0.00 0.00 0.00 0.00 0.00 0.00 0.00 0.00
MSLP
1015.36 1016.12 1016.73 1017.19 1017.51 1017.73 1017.88 1017.95 1017.95 1017.87 1017.67 1017.35 1016.93 1016.42 1015.88 1015.39 1015.00 1014.75 1014.68 1014.76 1014.96 1015.22 1015.48 1015.68 1015.80 1015.84 1015.83 1015.83 1015.89 1016.06 1016.38 1016.84 1017.41 1018.05 1018.71 1019.33 1019.87 1020.31 1020.63 1020.87 1021.04 1021.19 1021.34 1021.51
1015.63 1016.28 1016.78 1017.15 1017.43 1017.64 1017.83 1017.98 1018.07 1018.06 1017.90 1017.58 1017.09 1016.47 1015.78 1015.13 1014.59 1014.24 1014.11 1014.21 1014.48 1014.85 1015.24 1015.58 1015.81 1015.94 1015.97 1015.97 1016.01 1016.14 1016.43 1016.86 1017.43 1018.10 1018.80 1019.47 1020.05 1020.53 1020.88 1021.13 1021.32 1021.46 1021.61 1021.78
1015.66 1016.19 1016.58 1016.87 1017.12 1017.37 1017.63 1017.88 1018.08 1018.16 1018.06 1017.73 1017.17 1016.42 1015.58 1014.75 1014.05 1013.57 1013.38 1013.47 1013.80 1014.29 1014.84 1015.33 1015.71 1015.96 1016.08 1016.13 1016.18 1016.30 1016.56 1016.98 1017.55 1018.22 1018.93 1019.63 1020.24 1020.74 1021.12 1021.38 1021.57 1021.72 1021.87 1022.04
1015.49 1015.89 1016.18 1016.42 1016.66 1016.96 1017.32 1017.70 1018.02 1018.21 1018.16 1017.83 1017.21 1016.34 1015.33 1014.32 1013.44 1012.83 1012.55 1012.63 1013.00 1013.60 1014.29 1014.95 1015.50 1015.89 1016.13 1016.26 1016.36 1016.50 1016.76 1017.16 1017.71 1018.37 1019.08 1019.77 1020.39 1020.90 1021.28 1021.55 1021.75 1021.90 1022.06 1022.24
1015.19 1015.47 1015.67 1015.87 1016.13 1016.50 1016.97 1017.48 1017.94 1018.23 1018.25 1017.92 1017.24 1016.26 1015.09 1013.90 1012.86 1012.10 1011.73 1011.77 1012.17 1012.85 1013.67 1014.49 1015.21 1015.76 1016.13 1016.36 1016.53 1016.70 1016.96 1017.35 1017.88 1018.50 1019.19 1019.86 1020.47 1020.96 1021.35 1021.62 1021.82 1021.99 1022.16 1022.34
1014.82 1014.99 1015.12 1015.30 1015.60 1016.04 1016.62 1017.27 1017.85 1018.25 1018.33 1018.01 1017.28 1016.21 1014.91 1013.57 1012.37 1011.49 1011.02 1011.00 1011.41 1012.14 1013.06 1014.01 1014.87 1015.57 1016.08 1016.42 1016.65 1016.87 1017.14 1017.51 1018.00 1018.59 1019.23 1019.87 1020.45 1020.93 1021.31 1021.58 1021.80 1021.97 1022.16 1022.36
1014.43 1014.52 1014.60 1014.77 1015.11 1015.63 1016.31 1017.06 1017.76 1018.23 1018.36 1018.07 1017.32 1016.18 1014.80 1013.35 1012.03 1011.04 1010.48 1010.41 1010.79 1011.54 1012.52 1013.56 1014.53 1015.35 1015.96 1016.40 1016.70 1016.96 1017.24 1017.59 1018.05 1018.60 1019.20 1019.79 1020.34 1020.81 1021.18 1021.46 1021.68 1021.88 1022.08 1022.30
1014.01 1014.05 1014.12 1014.30 1014.67 1015.25 1016.01 1016.84 1017.60 1018.14 1018.32 1018.04 1017.30 1016.14 1014.72 1013.21 1011.83 1010.76 1010.14 1010.01 1010.36 1011.10 1012.09 1013.17 1014.20 1015.09 1015.78 1016.28 1016.64 1016.93 1017.22 1017.57 1018.00 1018.52 1019.08 1019.64 1020.17 1020.62 1020.99 1021.28 1021.52 1021.74 1021.96 1022.20
1013.55 1013.59 1013.66 1013.87 1014.28 1014.90 1015.69 1016.56 1017.36 1017.92 1018.13 1017.88 1017.16 1016.02 1014.61 1013.11 1011.72 1010.63 1009.97 1009.80 1010.10 1010.80 1011.76 1012.82 1013.86 1014.77 1015.50 1016.04 1016.45 1016.77 1017.08 1017.43 1017.86 1018.35 1018.89 1019.44 1019.95 1020.40 1020.78 1021.09 1021.35 1021.59 1021.83 1022.07
1013.01 1013.09 1013.21 1013.45 1013.89 1014.53 1015.32 1016.18 1016.97 1017.53 1017.73 1017.51 1016.83 1015.76 1014.41 1012.97 1011.64 1010.57 1009.91 1009.70 1009.95 1010.58 1011.47 1012.48 1013.48 1014.37 1015.10 1015.67 1016.10 1016.45 1016.79 1017.17 1017.61 1018.11 1018.66 1019.21 1019.73 1020.20 1020.59 1020.92 1021.20 1021.45 1021.69 1021.94
1012.37 1012.53 1012.72 1013.02 1013.48 1014.11 1014.87 1015.68 1016.40 1016.91 1017.10 1016.89 1016.26 1015.28 1014.05 1012.72 1011.48 1010.48 1009.85 1009.63 1009.82 1010.37 1011.17 1012.09 1013.01 1013.85 1014.56 1015.13 1015.59 1015.99 1016.38 1016.80 1017.28 1017.83 1018.40 1018.98 1019.53 1020.01 1020.43 1020.77 1021.06 1021.32 1021.56 1021.80
1011.65 1011.91 1012.20 1012.56 1013.04 1013.64 1014.33 1015.04 1015.66 1016.09 1016.23 1016.02 1015.46 1014.57 1013.47 1012.29 1011.19 1010.29 1009.71 1009.49 1009.64 1010.10 1010.78 1011.59 1012.42 1013.20 1013.88 1014.45 1014.95 1015.40 1015.86 1016.35 1016.91 1017.51 1018.14 1018.76 1019.34 1019.86 1020.29 1020.64 1020.93 1021.18 1021.41 1021.62
1010.90 1011.29 1011.68 1012.10 1012.59 1013.13 1013.72 1014.30 1014.79 1015.10 1015.17 1014.95 1014.43 1013.65 1012.69 1011.67 1010.72 1009.94 1009.43 1009.23 1009.33 1009.71 1010.29 1010.99 1011.72 1012.43 1013.08 1013.66 1014.20 1014.73 1015.27 1015.86 1016.50 1017.17 1017.87 1018.54 1019.16 1019.71 1020.15 1020.51 1020.79 1021.02 1021.21 1021.39
1010.20 1010.72 1011.21 1011.68 1012.14 1012.62 1013.08 1013.50 1013.82 1014.00 1013.97 1013.71 1013.23 1012.55 1011.74 1010.88 1010.08 1009.44 1009.01 1008.83 1008.92 1009.22 1009.71 1010.31 1010.95 1011.60 1012.23 1012.83 1013.42 1014.03 1014.66 1015.35 1016.08 1016.84 1017.60 1018.32 1018.98 1019.54 1019.99 1020.34 1020.61 1020.81 1020.97 1021.10
1009.65 1010.27 1010.82 1011.31 1011.73 1012.11 1012.42 1012.66 1012.81 1012.83 1012.69 1012.39 1011.93 1011.34 1010.66 1009.97 1009.33 1008.82 1008.48 1008.35 1008.42 1008.68 1009.08 1009.60 1010.18 1010.78 1011.40 1012.03 1012.68 1013.36 1014.09 1014.87 1015.68 1016.51 1017.32 1018.08 1018.76 1019.33 1019.78 1020.12 1020.37 1020.54 1020.66 1020.75
1009.29 1009.96 1010.54 1011.00 1011.36 1011.60 1011.76 1011.82 1011.78 1011.64 1011.40 1011.05 1010.61 1010.10 1009.56 1009.02 1008.54 1008.16 1007.92 1007.84 1007.92 1008.15 1008.51 1008.97 1009.50 1010.08 1010.69 1011.35 1012.06 1012.80 1013.61 1014.45 1015.32 1016.19 1017.03 1017.81 1018.49 1019.06 1019.50 1019.83 1020.06 1020.21 1020.30 1020.36
1009.12 1009.80 1010.35 1010.74 1010.99 1011.10 1011.08 1010.95 1010.74 1010.46 1010.12 1009.74 1009.33 1008.91 1008.49 1008.11 1007.79 1007.55 1007.42 1007.41 1007.52 1007.75 1008.08 1008.50 1009.00 1009.56 1010.18 1010.86 1011.60 1012.40 1013.24 1014.12 1015.01 1015.90 1016.74 1017.50 1018.17 1018.72 1019.16 1019.48 1019.69 1019.83 1019.91 1019.94
1009.08 1009.71 1010.18 1010.48 1010.59 1010.54 1010.35 1010.06 1009.70 1009.31 1008.90 1008.51 1008.15 1007.82 1007.54 1007.32 1007.16 1007.07 1007.06 1007.13 1007.29 1007.53 1007.86 1008.27 1008.75 1009.30 1009.92 1010.61 1011.36 1012.17 1013.02 1013.89 1014.77 1015.63 1016.43 1017.16 1017.80 1018.33 1018.75 1019.06 1019.28 1019.42 1019.50 1019.52
1009.09 1009.61 1009.97 1010.13 1010.10 1009.89 1009.55 1009.12 1008.65 1008.18 1007.75 1007.38 1007.09 1006.88 1006.75 1006.69 1006.69 1006.75 1006.87 1007.04 1007.26 1007.54 1007.89 1008.29 1008.77 1009.31 1009.92 1010.60 1011.33 1012.12 1012.93 1013.77 1014.60 1015.39 1016.14 1016.81 1017.40 1017.90 1018.30 1018.62 1018.84 1018.99 1019.08 1019.11
1009.02 1009.42 1009.63 1009.64 1009.47 1009.13 1008.67 1008.14 1007.60 1007.10 1006.68 1006.37 1006.18 1006.10 1006.13 1006.23 1006.40 1006.62 1006.86 1007.14 1007.43 1007.76 1008.13 1008.54 1009.01 1009.53 1010.12 1010.77 1011.47 1012.20 1012.96 1013.72 1014.47 1015.19 1015.85 1016.45 1016.99 1017.45 1017.83 1018.14 1018.38 1018.55 1018.65 1018.68
1008.80 1009.05 1009.12 1009.00 1008.70 1008.25 1007.71 1007.12 1006.56 1006.09 1005.72 1005.50 1005.43 1005.50 1005.68 1005.95 1006.27 1006.63 1007.00 1007.37 1007.74 1008.12 1008.51 1008.93 1009.39 1009.89 1010.45 1011.06 1011.70 1012.37 1013.05 1013.73 1014.38 1015.00 1015.58 1016.10 1016.58 1016.99 1017.35 1017.66 1017.90 1018.08 1018.19 1018.23
1008.36 1008.48 1008.43 1008.20 1007.80 1007.29 1006.71 1006.13 1005.60 1005.17 1004.90 1004.79 1004.84 1005.05 1005.37 1005.79 1006.26 1006.74 1007.21 1007.66 1008.10 1008.51 1008.92 1009.35 1009.80 1010.29 1010.81 1011.37 1011.96 1012.56 1013.16 1013.75 1014.31 1014.83 1015.32 1015.77 1016.17 1016.54 1016.87 1017.16 1017.40 1017.57 1017.68 1017.70
1007.71 1007.72 1007.58 1007.28 1006.84 1006.31 1005.75 1005.20 1004.73 1004.40 1004.22 1004.23 1004.40 1004.74 1005.19 1005.72 1006.29 1006.86 1007.41 1007.93 1008.40 1008.85 1009.28 1009.70 1010.15 1010.61 1011.10 1011.62 1012.16 1012.70 1013.23 1013.74 1014.21 1014.66 1015.07 1015.44 1015.79 1016.11 1016.40 1016.65 1016.86 1017.01 1017.10 1017.10
1006.87 1006.82 1006.62 1006.30 1005.86 1005.37 1004.86 1004.39 1004.01 1003.78 1003.72 1003.83 1004.11 1004.54 1005.08 1005.68 1006.32 1006.95 1007.54 1008.09 1008.59 1009.05 1009.48 1009.91 1010.34 1010.79 1011.26 1011.75 1012.25 1012.75 1013.23 1013.68 1014.09 1014.47 1014.82 1015.13 1015.41 1015.68 1015.91 1016.12 1016.28 1016.40 1016.44 1016.39
1005.89 1005.81 1005.61 1005.30 1004.92 1004.49 1004.08 1003.71 1003.45 1003.33 1003.36 1003.56 1003.92 1004.42 1005.00 1005.65 1006.31 1006.95 1007.56 1008.11 1008.61 1009.08 1009.51 1009.93 1010.36 1010.80 1011.26 1011.74 1012.22 1012.69 1013.14 1013.56 1013.93 1014.26 1014.56 1014.82 1015.04 1015.25 1015.42 1015.57 1015.67 1015.72 1015.70 1015.59
1004.81 1004.73 1004.56 1004.32 1004.02 1003.71 1003.41 1003.17 1003.03 1003.01 1003.14 1003.41 1003.82 1004.34 1004.95 1005.59 1006.24 1006.87 1007.46 1008.00 1008.49 1008.94 1009.37 1009.79 1010.22 1010.66 1011.12 1011.60 1012.07 1012.53 1012.97 1013.37 1013.72 1014.03 1014.28 1014.49 1014.67 1014.80 1014.91 1014.98 1015.01 1014.98 1014.89 1014.72
Thickness
5644 5636 5634 5640 5642 5644 5643 5639 5639 5647 5657 5656 5656 5664 5679 5683 5679 5679 5677 5676 5675 5677 5678 5676 5674 5673 5671 5669 5666 5663 5658 5652 5648 5642 5636 5631 5626 5622 5619 5616 5613 5610 5607 5604
5627 5628 5642 5642 5637 5636 5635 5632 5633 5641 5649 5648 5648 5657 5674 5679 5679 5683 5683 5679 5676 5672 5670 5669 5666 5665 5664 5661 5659 5655 5651 5647 5642 5638 5632 5627 5621 5615 5612 5608 5605 5602 5599 5596
5623 5634 5639 5632 5629 5626 5626 5625 5629 5631 5639 5641 5640 5649 5667 5678 5679 5681 5681 5680 5675 5672 5668 5663 5659 5657 5655 5653 5651 5649 5644 5640 5636 5631 5625 5619 5613 5608 5604 5600 5596 5593 5591 5588
5618 5629 5631 5626 5624 5622 5619 5628 5627 5627 5622 5618 5628 5622 5656 5668 5672 5676 5676 5672 5670 5669 5664 5658 5654 5650 5648 5645 5643 5641 5637 5632 5628 5624 5620 5615 5608 5602 5596 5591 5588 5585 5582 5579
5614 5623 5624 5621 5625 5622 5622 5628 5622 5620 5615 5610 5616 5612 5643 5659 5664 5674 5674 5670 5667 5663 5660 5656 5651 5646 5642 5638 5635 5632 5629 5624 5621 5617 5613 5608 5601 5595 5588 5584 5580 5576 5573 5569
5615 5622 5623 5625 5629 5624 5621 5615 5607 5598 5597 5595 5610 5603 5623 5650 5664 5671 5673 5667 5662 5657 5653 5649 5643 5638 5634 5629 5627 5624 5621 5616 5613 5609 5605 5601 5594 5587 5581 5576 5571 5567 5563 5560
5606 5614 5621 5624 5617 5616 5613 5601 5587 5586 5583 5589 5605 5602 5622 5656 5663 5664 5667 5664 5657 5651 5646 5642 5636 5632 5627 5623 5620 5617 5614 5609 5605 5601 5597 5593 5587 5581 5576 5570 5564 5559 5554 5550
5591 5597 5612 5617 5616 5608 5604 5601 5585 5580 5578 5584 5597 5597 5631 5654 5658 5659 5660 5659 5652 5645 5642 5639 5634 5629 5624 5619 5615 5611 5608 5603 5598 5594 5589 5585 5580 5574 5568 5563 5557 5551 5546 5542
5595 5597 5613 5615 5618 5612 5597 5594 5598 5583 5578 5577 5588 5602 5627 5653 5654 5655 5653 5649 5644 5641 5637 5634 5629 5624 5619 5615 5610 5606 5602 5597 5591 5587 5582 5576 5571 5566 5560 5554 5549 5543 5538 5534
5601 5592 5603 5607 5608 5605 5602 5595 5580 5576 5569 5569 5582 5594 5614 5639 5646 5648 5646 5642 5638 5635 5631 5627 5624 5619 5615 5610 5605 5600 5596 5592 5586 5580 5575 5570 5563 5558 5552 5546 5540 5534 5529 5525
5600 5591 5590 5594 5595 5594 5589 5587 5585 5575 5570 5568 5571 5594 5624 5631 5638 5638 5639 5638 5634 5630 5628 5625 5620 5615 5609 5604 5598 5594 5589 5584 5578 5573 5567 5561 5555 5549 5543 5537 5531 5526 5521 5515
5596 5586 5578 5586 5595 5597 5594 5590 5583 5573 5569 5564 5566 5590 5630 5630 5631 5632 5634 5634 5631 5627 5624 5620 5614 5608 5603 5598 5593 5588 5583 5578 5572 5566 5559 5553 5546 5540 5534 5528 5523 5517 5512 5506
5593 5580 5571 5575 5580 5585 5587 5586 5587 5583 5573 5558 5560 5589 5624 5624 5628 5630 5631 5630 5626 5623 5618 5613 5608 5604 5600 5595 5589 5583 5578 5572 5565 5558 5551 5544 5537 5531 5525 5519 5514 5508 5502 5497
5598 5581 5581 5581 5585 5585 5581 5583 5582 5577 5568 5563 5570 5590 5611 5618 5621 5624 5625 5625 5621 5617 5614 5609 5605 5601 5597 5591 5585 5579 5572 5565 5558 5550 5543 5536 5529 5523 5517 5510 5504 5498 5493 5487
5590 5580 5581 5587 5590 5586 5586 5586 5580 5578 5580 5578 5586 5590 5609 5616 5616 5619 5620 5620 5616 5613 5610 5607 5603 5598 5592 5586 5579 5573 5566 5558 5551 5543 5535 5528 5521 5514 5507 5501 5495 5489 5483 5477
5582 5579 5576 5579 5582 5581 5581 5583 5581 5581 5582 5582 5585 5593 5613 5614 5611 5611 5613 5612 5611 5610 5608 5604 5599 5593 5588 5582 5575 5567 5559 5551 5543 5535 5527 5520 5512 5505 5498 5491 5485 5479 5473 5467
5573 5571 5567 5567 5576 5573 5570 5583 5583 5581 5584 5585 5587 5603 5613 5608 5607 5608 5610 5608 5608 5608 5604 5600 5595 5590 5584 5577 5570 5561 5553 5543 5534 5526 5518 5511 5503 5495 5488 5482 5475 5469 5463 5457
5572 5567 5561 5558 5562 5556 5586 5596 5595 5591 5592 5592 5596 5604 5607 5606 5606 5605 5605 5604 5603 5602 5598 5594 5587 5581 5575 5567 5560 5552 5542 5534 5525 5517 5508 5501 5493 5486 5479 5472 5465 5459 5453 5447
5573 5567 5552 5546 5551 5560 5577 5591 5591 5586 5590 5598 5597 5601 5600 5597 5597 5599 5599 5597 5597 5595 5590 5584 5577 5570 5563 5556 5549 5540 5531 5522 5514 5506 5498 5491 5483 5476 5469 5462 5456 5450 5444 5438
5559 5563 5552 5541 5549 5554 5581 5597 5595 5589 5586 5603 5598 5597 5592 5586 5586 5594 5595 5589 5585 5581 5576 5570 5563 5557 5550 5543 5536 5528 5518 5510 5503 5496 5489 5481 5473 5466 5459 5452 5446 5440 5434 5429
5548 5547 5545 5541 5548 5557 5582 5589 5588 5576 5588 5604 5598 5594 5584 5583 5588 5585 5579 5576 5571 5566 5561 5556 5551 5544 5537 5530 5524 5515 5507 5499 5493 5485 5477 5470 5463 5456 5449 5442 5436 5430 5424 5418
5554 5542 5537 5536 5541 5557 5584 5579 5582 5590 5596 5596 5593 5589 5581 5579 5574 5570 5566 5561 5556 5552 5547 5542 5537 5529 5522 5517 5511 5503 5495 5488 5481 5474 5466 5459 5452 5445 5439 5432 5425 5418 5411 5405
5556 5565 5560 5562 5570 5582 5581 5584 5589 5588 5588 5588 5585 5582 5576 5570 5564 5559 5554 5548 5544 5539 5534 5529 5524 5515 5508 5503 5499 5491 5483 5476 5469 5461 5454 5447 5441 5434 5427 5420 5413 5406 5399 5392
5546 5554 5552 5553 5564 5573 5575 5577 5580 5580 5582 5582 5579 5574 5567 5564 5557 5549 5542 5536 5531 5527 5522 5517 5511 5504 5496 5490 5484 5478 5471 5464 5457 5450 5443 5436 5429 5423 5416 5409 5402 5395 5388 5381
5554 5543 5546 5551 5562 5566 5570 5570 5574 5572 5571 5570 5568 5564 5560 5555 5548 5541 5533 5527 5521 5516 5510 5505 5500 5493 5485 5478 5472 5466 5459 5453 5445 5438 5431 5425 5419 5412 5406 5399 5392 5385 5379 5368
5541 5545 5551 5559 5565 5565 5572 5575 5570 5565 5563 5560 5557 5553 5549 5545 5539 5532 5524 5517 5511 5505 5499 5492 5486 5480 5473 5466 5460 5454 5448 5441 5434 5427 5420 5414 5407 5401 5394 5388 5384 5378 5370 5364